TimeMDT,TemperatureF,Dew PointF,Humidity,Sea Level PressureIn,VisibilityMPH,Wind Direction,Wind SpeedMPH,Gust SpeedMPH,PrecipitationIn,Events,Conditions,WindDirDegrees,DateUTC
12:15 AM,26.6,19.4,74,30.08,10.0,North,8.1,-,N/A,,Clear,10,2013-04-10 06:15:00
12:35 AM,24.8,17.6,74,30.09,10.0,North,6.9,-,N/A,,Clear,350,2013-04-10 06:35:00
12:55 AM,24.8,17.6,74,30.09,10.0,North,5.8,-,N/A,,Clear,350,2013-04-10 06:55:00
1:15 AM,23.0,17.6,80,30.09,10.0,North,3.5,-,N/A,,Clear,10,2013-04-10 07:15:00
1:35 AM,23.0,19.4,86,30.09,10.0,North,8.1,-,N/A,,Clear,10,2013-04-10 07:35:00
1:55 AM,21.2,17.6,86,30.09,10.0,North,8.1,-,N/A,,Clear,350,2013-04-10 07:55:00
2:15 AM,21.2,17.6,86,30.09,10.0,NNE,3.5,-,N/A,,Clear,20,2013-04-10 08:15:00
2:35 AM,21.2,17.6,86,30.09,10.0,NNE,8.1,-,N/A,,Clear,20,2013-04-10 08:35:00
2:55 AM,19.4,15.8,86,30.09,10.0,NNE,6.9,-,N/A,,Clear,30,2013-04-10 08:55:00
3:35 AM,17.6,14.0,86,30.08,10.0,North,6.9,-,N/A,,Clear,360,2013-04-10 09:35:00
3:55 AM,19.4,15.8,86,30.08,10.0,North,6.9,-,N/A,,Clear,10,2013-04-10 09:55:00
4:15 AM,17.6,15.8,93,30.09,10.0,NNW,6.9,-,N/A,,Clear,340,2013-04-10 10:15:00
4:35 AM,19.4,15.8,86,30.09,10.0,Calm,Calm,-,N/A,,Clear,0,2013-04-10 10:35:00
4:55 AM,17.6,15.8,93,30.09,10.0,NNE,4.6,-,N/A,,Clear,30,2013-04-10 10:55:00
5:15 AM,17.6,14.0,86,30.09,10.0,North,6.9,-,N/A,,Clear,350,2013-04-10 11:15:00
5:35 AM,15.8,12.2,86,30.08,10.0,Calm,Calm,-,N/A,,Clear,0,2013-04-10 11:35:00
5:55 AM,17.6,12.2,79,30.09,10.0,Calm,Calm,-,N/A,,Clear,0,2013-04-10 11:55:00
6:15 AM,15.8,12.2,86,30.09,10.0,Calm,Calm,-,N/A,,Clear,0,2013-04-10 12:15:00
6:35 AM,15.8,12.2,86,30.09,10.0,NE,3.5,-,N/A,,Clear,50,2013-04-10 12:35:00
6:53 AM,15.8,12.2,86,30.10,10.0,Calm,Calm,-,N/A,,Clear,0,2013-04-10 12:53:00
7:54 AM,17.6,12.2,79,30.11,10.0,Calm,Calm,-,N/A,,Clear,0,2013-04-10 13:54:00
8:58 AM,21.2,14.0,74,30.12,10.0,NNW,5.8,-,N/A,,Clear,340,2013-04-10 14:58:00
9:51 AM,24.8,15.8,69,30.11,10.0,North,4.6,-,N/A,,Clear,10,2013-04-10 15:51:00
10:54 AM,30.2,15.8,55,30.10,10.0,NNW,5.8,-,N/A,,Clear,340,2013-04-10 16:54:00
11:51 AM,33.8,12.2,41,30.08,10.0,Calm,Calm,-,N/A,,Clear,0,2013-04-10 17:51:00
12:56 PM,37.4,12.2,36,30.04,10.0,Calm,Calm,-,N/A,,Partly Cloudy,0,2013-04-10 18:56:00
1:51 PM,39.2,15.8,39,30.02,10.0,ENE,5.8,-,N/A,,Partly Cloudy,70,2013-04-10 19:51:00
2:52 PM,42.8,19.4,39,29.98,10.0,SW,4.6,-,N/A,,Partly Cloudy,220,2013-04-10 20:52:00
3:52 PM,44.6,19.4,37,29.96,10.0,West,8.1,-,N/A,,Scattered Clouds,270,2013-04-10 21:52:00
4:51 PM,44.6,21.2,39,29.94,10.0,WSW,15.0,23.0,N/A,,Scattered Clouds,240,2013-04-10 22:51:00
5:51 PM,44.6,23.0,43,29.92,10.0,WSW,17.3,28.8,N/A,,Scattered Clouds,250,2013-04-10 23:51:00
6:55 PM,42.8,23.0,46,29.91,10.0,WSW,16.1,23.0,N/A,,Scattered Clouds,250,2013-04-11 00:55:00
7:53 PM,41.0,24.8,53,29.91,10.0,SW,13.8,-,N/A,,Scattered Clouds,230,2013-04-11 01:53:00
8:55 PM,39.2,23.0,52,29.90,10.0,SSW,10.4,-,N/A,,Mostly Cloudy,210,2013-04-11 02:55:00
9:15 PM,39.2,24.8,56,29.90,10.0,SSW,9.2,-,N/A,,Overcast,210,2013-04-11 03:15:00
9:35 PM,39.2,24.8,56,29.90,10.0,SW,9.2,-,N/A,,Overcast,220,2013-04-11 03:35:00
9:56 PM,39.2,24.8,56,29.90,10.0,SW,5.8,-,N/A,,Overcast,230,2013-04-11 03:56:00
10:15 PM,39.2,24.8,56,29.89,10.0,SW,5.8,-,N/A,,Overcast,230,2013-04-11 04:15:00
10:35 PM,39.2,24.8,56,29.90,10.0,WSW,6.9,-,N/A,,Overcast,240,2013-04-11 04:35:00
10:55 PM,39.2,26.6,61,29.90,5.0,SW,4.6,-,N/A,,Overcast,220,2013-04-11 04:55:00
11:15 PM,37.4,30.2,75,29.88,7.0,ESE,3.5,-,N/A,,Overcast,120,2013-04-11 05:15:00
11:55 PM,35.6,30.2,81,29.89,10.0,NW,6.9,-,N/A,,Overcast,320,2013-04-11 05:55:00